Simultaneous Nadir Overpasses (SNOs) Predictions

Prediction of SNOs between AURA and NPP Satellite Orbit:

Table of predicted SNOs for the next 14.0 days since TLE Epoch: 3/28/2015
Index Date (AURA) Time (AURA) Lat,Lon (AURA) SZA (AURA ) Date (NPP) Time (NPP) Lat,Lon (NPP) SZA (NPP ) Distance(km) Time Diff (sec)
1 03/30/2015 00:24:51 78.62, 65.65 90.27 03/30/2015 00:24:37 78.61, 65.56 90.30 2.13 14
2 03/30/2015 01:14:07 -79.08,-124.06 90.38 03/30/2015 01:15:10 -79.08,-124.08 90.42 0.66 63
3 04/01/2015 15:51:59 -78.40, 12.73 90.49 04/01/2015 15:50:50 -78.40, 12.76 90.44 0.53 69
4 04/01/2015 16:41:12 78.92,-176.77 88.80 04/01/2015 16:41:20 78.93,-176.64 88.77 2.90 8
5 04/04/2015 08:08:21 -78.64, 129.87 91.85 04/04/2015 08:07:34 -78.64, 129.98 91.84 2.55 47
6 04/04/2015 08:57:39 78.95, -60.75 87.72 04/04/2015 08:58:10 78.94, -60.78 87.71 0.91 31
7 04/07/2015 00:24:47 -78.76,-113.58 93.05 04/07/2015 00:24:22 -78.76,-113.49 93.05 2.05 25
8 04/07/2015 01:14:05 79.06, 55.83 86.53 04/07/2015 01:14:58 79.06, 55.78 86.50 1.09 53
9 04/09/2015 16:41:16 -78.77, 2.34 94.08 04/09/2015 16:41:13 -78.77, 2.30 94.07 1.04 3




NCC Satellite Simultaneous Nadir Overpasses (SNOs) Prediction Service
